Volver al catálogo

STARLINK-5124

ActivoComunicacionesVLEO
NORAD 54011·PAYLOAD·🇺🇸 United States

Lanzado Oct 5, 2022 desde Vandenberg Space Force Base

Loading…

Próximos Pases (próximas 24 horas)

TLE

ActualizadoSource: CelesTrak SupGP

Época: Sep 14, 2026, 21:54 UTC

1 54011C 22125AZ  26257.91298611  .00025832  00000+0  76326-3 0  2575
2 54011  53.1598  63.5964 0001163  78.1294  89.6801 15.34376064    11

Sigue STARLINK-5124 en tiempo real con AllMySat

Download on the App Store